{"data":{"norad_id":67568,"intl_designator":"2026-016H","name":"STARLINK-36435","alt_names":[],"object_type":"PAYLOAD","status":"ACTIVE","operator":null,"country":"US","launch_date":"2026-01-25","launch_site_code":"AFWTR","launch_vehicle":null,"mission":null,"orbit_class":"UNKNOWN","rcs_meters":null,"size_class":null,"mass_kg":null,"dimensions":null,"purposes":["comms"],"wikipedia_slug":null,"has_3d_model":false,"image_url":null,"decayed_at":null,"tle_current":{"epoch":"2026-09-19T21:54:58.819392Z","epoch_age_seconds":123006,"freshness":"FRESH","line1":"1 67568U 26016H   26262.91318078  .00010200  00000+0  31777-3 0  9992","line2":"2 67568  97.2855 321.6330 0000730 100.2626 259.8699 15.33453800 36633","mean_motion":15.334538,"eccentricity":7.3e-5,"inclination_deg":97.2855,"raan_deg":321.633,"arg_perigee_deg":100.2626,"mean_anomaly_deg":259.8699,"bstar":0.00031777,"rev_number":3663,"period_min":93.905665759216,"perigee_km":465.01740525325,"apogee_km":466.01657873608,"semimajor_km":6843.6539919947,"source":"CELESTRAK","updated_at":"2026-09-20T09:00:43.575174Z"}}}